RH
22 20 18 15 14 16 16 14 17 22 20 20 24 26 26 25 22 20 25 28 26 26 26 23 21 21 21 23 22 21 22 22 22 23 23 23 24 25 27 32 38 45
23 20 17 16 16 14 14 14 16 18 20 21 24 25 25 26 25 25 28 28 27 27 27 25 25 23 23 25 24 22 23 23 24 23 22 22 23 25 26 26 29 34
24 21 17 17 18 17 16 16 15 18 23 24 23 24 26 26 27 27 27 25 25 26 27 27 26 25 26 27 24 23 25 25 25 25 24 23 23 25 28 27 27 30
25 22 19 17 18 18 17 19 21 23 25 25 23 25 25 23 23 25 27 26 23 22 22 23 23 23 26 27 25 24 26 26 25 25 22 22 24 24 24 26 28 29
25 20 19 18 18 19 22 24 27 28 28 27 26 27 27 25 23 25 25 24 22 19 20 21 24 27 28 26 25 25 26 26 27 26 22 21 23 24 25 24 26 28
24 20 19 20 21 23 27 30 30 30 29 28 28 28 29 28 27 26 21 19 20 21 24 25 26 26 26 24 24 25 26 27 27 27 25 24 24 26 27 25 24 26
28 25 23 24 26 27 29 31 30 30 30 30 29 29 29 29 29 28 26 24 23 23 25 25 22 22 24 24 24 25 26 27 27 26 25 26 26 27 27 26 26 26
29 29 27 26 28 30 30 30 29 31 31 30 30 29 30 30 29 29 29 28 24 21 19 19 21 24 26 27 27 27 26 28 28 28 26 27 28 27 26 26 26 26
28 28 27 27 29 31 30 30 29 30 31 31 31 31 30 29 29 31 31 27 22 20 20 21 25 27 28 28 28 28 28 29 28 28 28 28 29 28 27 27 27 26
29 29 27 27 29 31 30 29 30 30 31 31 31 31 30 29 30 32 33 29 25 25 26 26 26 28 29 29 29 28 29 29 28 27 28 28 29 29 28 28 27 26
31 31 28 27 29 31 30 30 30 31 32 34 36 35 32 31 31 32 34 33 32 31 29 26 27 29 30 30 28 27 27 27 27 26 27 27 27 27 27 26 25 25
38 34 31 30 31 32 31 30 32 36 40 43 45 43 37 34 33 33 33 34 34 33 30 30 31 32 32 32 31 28 26 27 27 27 27 27 26 26 26 24 24 25
42 36 32 31 31 30 31 31 36 44 47 48 49 48 43 39 35 33 34 35 35 35 33 32 32 33 35 36 35 32 30 27 26 26 27 27 27 27 27 26 26 26
42 37 32 30 28 29 30 33 38 45 48 49 50 49 46 43 40 38 37 36 36 35 34 32 32 34 35 35 35 34 32 28 26 28 28 29 29 29 28 28 28 26
43 38 35 34 34 34 36 37 40 43 47 49 49 48 46 45 44 43 41 40 38 35 33 33 32 32 32 32 32 31 30 28 27 28 29 29 28 29 29 29 28 27
44 42 41 40 39 40 42 43 43 45 47 47 46 46 47 47 47 46 44 42 38 34 32 32 32 31 31 30 29 27 28 27 26 26 26 26 26 27 28 28 28 27
46 45 44 43 42 43 44 45 46 47 46 45 44 45 46 46 46 43 39 36 34 33 32 32 31 31 32 31 29 28 29 28 27 26 26 27 28 28 28 28 28 28
48 47 45 43 42 42 43 44 45 43 42 42 43 42 41 40 37 33 31 31 33 32 31 32 31 31 32 32 30 29 30 31 30 28 27 28 30 31 30 30 30 29
47 47 45 42 40 41 41 41 40 39 40 40 40 38 35 33 30 29 29 31 33 32 32 32 32 32 33 33 30 28 29 29 29 29 28 29 29 30 30 31 30 29
47 46 41 39 37 38 38 37 38 39 40 39 38 35 32 30 30 30 32 32 33 33 32 32 32 32 33 32 29 27 28 28 28 27 28 29 28 28 29 29 29 29
46 41 37 35 36 36 37 37 39 40 39 38 36 32 29 28 30 32 33 33 33 32 32 31 31 32 32 30 27 26 27 27 26 27 29 30 29 28 28 28 27 26
43 37 35 36 36 35 36 37 38 38 36 34 32 29 27 28 31 33 33 32 33 32 31 30 30 31 31 30 26 25 26 26 27 28 30 30 30 29 28 27 26 25
38 35 35 37 36 35 36 37 36 34 33 31 30 31 30 29 31 32 32 32 32 32 31 30 30 29 29 28 25 24 25 27 28 29 30 29 29 29 29 29 29 29
36 36 37 37 35 34 34 34 32 31 31 31 33 34 32 30 30 33 33 32 32 31 30 30 28 26 26 28 27 25 26 28 29 30 30 30 30 31 32 33 35 35
37 38 37 36 35 33 33 32 32 32 32 31 32 33 33 32 33 33 33 31 32 30 29 28 28 27 28 31 31 27 26 27 30 31 31 32 32 32 33 35 37 37
39 38 36 35 34 34 33 32 32 31 31 31 32 33 34 33 33 32 31 31 30 29 28 28 28 29 29 31 31 29 27 28 29 31 32 33 35 36 36 38 39 41